Regional Weather Roundup
Issued by NWS

Home | Current Version | Previous Version | Text Only | Print | Product List | Glossary On
Versions: 1 2 3 4 5 6 7 8 9 10 11 12 13 14 15 16 17 18 19 20 21 22 23 24 25 26 27 28 29 30 31 32 33 34 35 36 37 38 39 40 41 42 43 44 45 46 47 48 49 50
000
ASUS43 KLSX 260307
RWRMO

WEATHER SUMMARY FOR MISSOURI
NATIONAL WEATHER SERVICE SPRINGFIELD MO
1000 PM CDT SAT APR 25 2015

NOTE: "FAIR" INDICATES FEW OR NO CLOUDS BELOW 12,000 FEET WITH NO
       SIGNIFICANT WEATHER AND/OR OBSTRUCTIONS TO VISIBILITY.
       CURRENT SKY AND/OR WEATHER CONDITIONS ARE NOT AVAILABLE FOR
       CHILLICOTHE AND FARMINGTON.

MOZ001>031-035>038-043-044-053-054-260400-
...NORTHERN AND WESTERN MISSOURI...

CITY           SKY/WX    TMP DP  RH WIND       PRES   REMARKS
KANSAS CTY INT CLOUDY    49  48  97 N10       29.78R
KANSAS C DTWN  CLOUDY    51  47  86 N10       29.78R
LEE`S SUMMIT   CLOUDY    50  47  89 N12       29.78R
ST JOSEPH      CLOUDY    49  47  93 N9        29.81R FOG
CHILLICOTHE      N/A     50  46  86 NE9       29.81R
KIRKSVILLE     CLOUDY    47  46  97 NE15G25   29.80R

$$
MOZ066>068-077>081-088>096-101>105-260400-
...SOUTHWEST MISSOURI...

CITY           SKY/WX    TMP DP  RH WIND       PRES   REMARKS
SPRINGFIELD    CLOUDY    58  53  84 N16       29.71R
JOPLIN         CLEAR     59  54  83 N8        29.72R

$$
MOZ032>034-039>042-045>050-055>058-069>072-260400-
...CENTRAL MISSOURI...

CITY           SKY/WX    TMP DP  RH WIND       PRES   REMARKS
COLUMBIA       LGT RAIN  51  49  92 N16       29.73R
JEFFERSON CITY CLOUDY    54  50  86 N10G21    29.72R
ROLLA          CLOUDY    55  54  96 N12       29.66R FOG
SEDALIA        CLOUDY    52  50  93 N9        29.75R FOG
WARRENSBURG    CLOUDY    50  48  93 N8        29.77R
OSAGE BEACH    CLOUDY    55  52  88 N8        29.70R

$$
MOZ051-052-059>065-260400-
...EAST CENTRAL MISSOURI...

CITY           SKY/WX    TMP DP  RH WIND       PRES   REMARKS
ST LOUIS INTL  LGT RAIN  53  49  86 NE15G24   29.70R FOG
SPIRIT OF STL  CLOUDY    53  50  89 N15G23    29.69R
ST CHARLES     CLOUDY    51  48  89 NE17G24   29.71R FOG

$$
MOZ072>076-082>087-097>100-106>115-260400-
...SOUTH CENTRAL AND SOUTHEAST MISSOURI...

CITY           SKY/WX    TMP DP  RH WIND       PRES   REMARKS
CAPE GIRARDEAU CLOUDY    64  59  83 N8        29.60R
FARMINGTON     CLOUDY    61  57  88 N8        29.67R
POPLAR BLUFF   CLOUDY    68  56  65 N7        29.59R
WEST PLAINS    CLOUDY    66  51  58 NW8       29.66R

$$


USA.gov is the U.S. government's official web portal to all federal, state and local government web resources and services.